TimeCST,TemperatureF,Dew PointF,Humidity,Sea Level PressureIn,VisibilityMPH,Wind Direction,Wind SpeedMPH,Gust SpeedMPH,PrecipitationIn,Events,Conditions,WindDirDegrees,DateUTC
12:53 AM,37.9,15.1,39,29.98,10.0,SW,6.9,-,N/A,,Mostly Cloudy,220,2014-01-31 06:53:00
1:53 AM,35.1,17.1,48,30.00,10.0,NW,5.8,-,N/A,,Overcast,310,2014-01-31 07:53:00
2:53 AM,34.0,17.1,50,30.04,10.0,Calm,Calm,-,N/A,,Overcast,0,2014-01-31 08:53:00
3:53 AM,34.0,24.1,67,30.02,10.0,North,11.5,-,N/A,,Scattered Clouds,360,2014-01-31 09:53:00
4:53 AM,33.1,25.0,72,30.04,10.0,NNE,9.2,-,N/A,,Overcast,20,2014-01-31 10:53:00
5:53 AM,30.9,21.9,69,30.06,10.0,North,9.2,-,N/A,,Overcast,10,2014-01-31 11:53:00
6:53 AM,30.0,19.9,66,30.08,10.0,North,4.6,-,N/A,,Overcast,360,2014-01-31 12:53:00
7:53 AM,30.0,19.9,66,30.11,10.0,North,11.5,-,N/A,,Overcast,10,2014-01-31 13:53:00
8:53 AM,28.9,19.0,67,30.12,10.0,NNE,9.2,-,N/A,,Mostly Cloudy,20,2014-01-31 14:53:00
9:53 AM,30.0,19.9,66,30.12,10.0,NNE,9.2,-,N/A,,Mostly Cloudy,30,2014-01-31 15:53:00
10:53 AM,32.0,19.0,59,30.14,10.0,NE,9.2,-,N/A,,Mostly Cloudy,40,2014-01-31 16:53:00
11:53 AM,33.1,19.0,56,30.11,10.0,NE,6.9,-,N/A,,Mostly Cloudy,40,2014-01-31 17:53:00
12:53 PM,33.1,19.0,56,30.08,10.0,North,8.1,-,N/A,,Overcast,10,2014-01-31 18:53:00
1:53 PM,32.0,19.0,59,30.06,10.0,NE,9.2,-,N/A,,Overcast,40,2014-01-31 19:53:00
2:53 PM,32.0,19.9,61,30.06,10.0,NE,8.1,-,N/A,,Overcast,40,2014-01-31 20:53:00
3:13 PM,32.0,21.2,64,30.05,9.0,NE,8.1,-,N/A,,Overcast,40,2014-01-31 21:13:00
3:53 PM,30.0,25.0,82,30.06,4.0,NE,6.9,-,N/A,,Overcast,40,2014-01-31 21:53:00
4:46 PM,30.2,26.6,86,30.03,2.5,ENE,5.8,-,N/A,,Overcast,60,2014-01-31 22:46:00
4:53 PM,30.0,27.0,88,30.05,2.5,ENE,6.9,-,N/A,,Overcast,60,2014-01-31 22:53:00
5:21 PM,30.2,26.6,86,30.04,2.5,NE,5.8,-,N/A,,Overcast,40,2014-01-31 23:21:00
5:53 PM,30.0,28.0,92,30.06,3.0,NNE,4.6,-,N/A,,Overcast,30,2014-01-31 23:53:00
6:20 PM,30.2,28.4,93,30.04,3.0,NE,6.9,-,0.00,Rain,Light Freezing Rain,50,2014-02-01 00:20:00
6:53 PM,30.0,28.9,96,30.05,4.0,ENE,4.6,-,0.00,,Overcast,60,2014-02-01 00:53:00
7:53 PM,30.0,28.0,92,30.05,6.0,ENE,5.8,-,N/A,,Overcast,60,2014-02-01 01:53:00
8:36 PM,30.2,28.4,93,30.02,7.0,ENE,4.6,-,N/A,,Overcast,70,2014-02-01 02:36:00
8:53 PM,30.9,28.9,92,30.02,5.0,ENE,5.8,-,N/A,,Overcast,70,2014-02-01 02:53:00
9:53 PM,30.9,28.9,92,30.02,6.0,Calm,Calm,-,N/A,,Overcast,0,2014-02-01 03:53:00
10:42 PM,30.2,28.4,93,29.98,4.0,ENE,4.6,-,N/A,,Overcast,70,2014-02-01 04:42:00
10:53 PM,30.9,30.0,96,30.00,2.5,NE,4.6,-,N/A,,Overcast,50,2014-02-01 04:53:00
11:46 PM,30.2,30.2,100,29.97,1.8,ENE,3.5,-,N/A,,Overcast,60,2014-02-01 05:46:00
11:53 PM,30.9,30.0,96,29.98,1.8,ENE,3.5,-,N/A,,Overcast,70,2014-02-01 05:53:00